Regional Weather Roundup
Issued by NWS

Home | Current Version | Previous Version | Graphics & Text | Print | Product List | Glossary On
Versions: 1 2 3 4 5 6 7 8 9 10 11 12 13 14 15 16 17 18 19 20 21 22 23 24 25 26 27 28 29 30 31 32 33 34 35 36 37 38 39 40 41 42 43 44 45 46 47 48 49 50
000
ASUS45 KCYS 012210
RWRWY

WYOMING REGIONAL WEATHER ROUNDUP
NATIONAL WEATHER SERVICE CHEYENNE WY
400 PM MDT MON SEP 01 2014

NOTE:  "FAIR" INDICATES FEW OR NO CLOUDS BELOW 12,000 FEET
WITH NO SIGNIFICANT WEATHER AND/OR OBSTRUCTIONS TO VISIBILITY.

WYZ001-012300-
YELLOWSTONE NATIONAL PARK

CITY           SKY/WX    TMP DP  RH WIND       PRES   REMARKS
LK YELLOWSTONE   N/A     55  33  43 W8        30.20S
W YELLOWSTONE  NOT AVBL

$$
WYZ002>013-054>058-071-098>099-012300-
NORTHERN WYOMING

CITY           SKY/WX    TMP DP  RH WIND       PRES   REMARKS
JACKSON        MOSUNNY   64  30  27 SW14      30.14S
CODY             N/A    N/A N/A N/A MISG        N/A
GREYBULL       SUNNY     71  39  31 NW9       29.96F
WORLAND        SUNNY     72  41  32 NE5       29.97S
SHERIDAN       SUNNY     68  42  38 NW12G18   29.98F
BUFFALO        MOSUNNY   62  42  47 N12       30.03F
GILLETTE       CLOUDY    60  46  59 VRB3      30.01F
HULETT         MOCLDY    63  41  45 MISG      30.00
NEWCASTLE      FAIR      61  43  51 NW17G23   30.00

$$
WYZ014>020-022>026-101>103-012300-
CENTRAL WYOMING

CITY           SKY/WX    TMP DP  RH WIND       PRES   REMARKS
BIG PINEY      SUNNY     67  26  21 NW18G24   30.16S
PINEDALE       CLEAR     63  30  29 NW14G21   30.16S
DUBOIS         MOCLDY    61  27  27 NW21G28   30.12R
LANDER         MOSUNNY   73  28  18 N7        30.01S
RIVERTON       SUNNY     74  22  14 NW18G28   30.01S
CASPER         MOSUNNY   71  39  31 NW12      30.01R
DOUGLAS        CLOUDY    63  46  54 N13       30.00R

$$
WYZ021-027>030-104>119-012300-
SOUTHERN WYOMING

CITY           SKY/WX    TMP DP  RH WIND       PRES   REMARKS
EVANSTON       MOSUNNY   68  31  25 W20G29    30.20S
KEMMERER       PTCLDY    64  28  25 W15G24    30.20S
FORT BRIDGER   FAIR      70  32  23 W23G30    30.22R
ROCK SPRINGS   SUNNY     71  29  21 W28G36    30.13S
DIXON          FAIR      72  35  26 W16G22    30.14S
RAWLINS        SUNNY     71  25  17 W26G39    30.08F
SARATOGA       FAIR      66  30  26 W28G36    30.13R
LARAMIE        PTSUNNY   67  32  27 W23G32    30.10R
CHEYENNE       MOSUNNY   74  29  19 W22G33    30.02F
TORRINGTON     MOSUNNY   74  42  31 N21G29    29.90S
PINE BLUFFS    FAIR      72  34  25 CALM      29.98F

$$



USA.gov is the U.S. government's official web portal to all federal, state and local government web resources and services.